Flag for U.S.A. Weather past 2 weeks in Fullerton, California, U.S.A.

Now
64 °F

Clear.


Feels Like: 64 °F
Forecast: 57 / 76 °F
Wind: No wind

Location: Fullerton Municipal Airport

Current Time: Mar 30, 2015 at 10:35:55 PM

Latest Report: Mar 30, 2015 at 9:53 PM


Visibility: 10 mi

Pressure: 29.99 "Hg

Humidity: 73%

Dew point: 55 °F

Location of FullertonLocation

Historic Weather in Fullerton — Graph

°F

Fullerton temperature yesterday

Maximum temperature yesterday: 81 °F (at 2:53 PM)
Minimum temperature yesterday: 61 °F (at 2:53 AM)
Average temperature yesterday: 69 °F

Past Weeks' High & Low Weather Summary

 TemperatureHumidityPressure
High95 °F (Mar 26, 1:53 PM)90% (Mar 29, 4:53 AM)30.18 "Hg (Mar 29, 4:53 AM)
Low56 °F (Mar 24, 5:53 AM)7% (Mar 26, 1:53 PM)29.85 "Hg (Mar 16, 5:53 PM)
Average69 °F56%30.02 "Hg
* Reported Mar 15 8:53 PM — Mar 30 8:53 PM, Fullerton, Weather by CustomWeather, © 2015

Note: Actual official high and low records may vary slightly from our data, if they occured in-between our weather recording intervals... More about our weather records

Advertising

Fullerton weather history for previous 24 hours

 ConditionsComfort  
Time TempWeatherWind HumidityBarometerVisibility
8:53 PM
Mon, Mar 30
66 °FClear.5 mph68%29.97 "Hg10 mi
7:53 PM69 °FSunny.6 mph61%29.95 "Hg10 mi
6:53 PM72 °FSunny.5 mph52%29.93 "Hg10 mi
5:53 PM78 °FSunny.6 mph40%29.93 "Hg10 mi
4:53 PM77 °FSunny.7 mph47%29.93 "Hg10 mi
3:53 PM76 °FSunny.8 mph48%29.94 "Hg10 mi
2:53 PM78 °FSunny.8 mph46%29.95 "Hg6 mi
1:53 PM80 °FSunny.7 mph41%29.97 "Hg6 mi
12:53 PM78 °FSunny.3 mph37%30.00 "Hg8 mi
11:53 AM74 °FSunny.6 mph48%30.01 "Hg7 mi
10:53 AM69 °FSunny.3 mph61%30.03 "Hg5 mi
9:53 AM67 °FScattered clouds.No wind66%30.03 "Hg5 mi
8:53 AM63 °FOvercast.No wind75%30.02 "Hg4 mi
7:53 AM61 °FOvercast.No wind81%30.01 "Hg4 mi
6:53 AM61 °FLow clouds.No wind81%30.00 "Hg5 mi
5:53 AM61 °FLow clouds.No wind83%29.98 "Hg6 mi
4:53 AM60 °FFog.No wind90%29.98 "Hg5 mi
3:53 AM61 °FFog.No wind87%29.98 "Hg5 mi
3:04 AM60 °FPassing clouds.3 mph86%29.99 "Hg7 mi
2:53 AM60 °FPassing clouds.No wind86%29.98 "Hg8 mi
1:53 AM60 °FClear.No wind83%30.00 "Hg10 mi
12:53 AM62 °FClear.No wind80%30.01 "Hg10 mi
11:53 PM
Sun, Mar 29
63 °FClear.3 mph78%30.02 "Hg10 mi
10:53 PM63 °FClear.3 mph78%30.02 "Hg10 mi
Weather by CustomWeather, © 2015

See weather overviewHow to use our weather pages